Regional Weather Roundup
Issued by NWS

Home | Current Version | Previous Version | Text Only | Print | Product List | Glossary On
Versions: 1 2 3 4 5 6 7 8 9 10 11 12 13 14 15 16 17 18 19 20 21 22 23 24 25 26 27 28 29 30 31 32 33 34 35 36 37 38 39 40 41 42 43 44 45 46 47 48 49 50
000
ASUS45 KSLC 291510
RWRUT

UTAH REGIONAL WEATHER ROUNDUP
NATIONAL WEATHER SERVICE SALT LAKE CITY UT
900 AM MDT THU SEP 29 2016

UTZ001>011-023>025-291600-

NORTHERN UTAH

CITY           SKY/WX    TMP DP  RH WIND       PRES   REMARKS
BRIGHAM CITY     N/A     59  52  78 CALM      30.23R
DUGWAY         PTSUNNY   64  50  60 S8        30.24R
HILL AFB       MOSUNNY   63  48  58 E10       30.25R
LOGAN          CLOUDY    58  52  80 CALM      30.24R
OGDEN          PTSUNNY   64  49  57 MISG      30.23R
PROVO AIRPORT  SUNNY     62  48  60 SE6       30.28R
SALT LAKE CITY MOSUNNY   65  51  60 SE7       30.23R
VERNAL         CLOUDY    55  52  89 CALM      30.38R
WENDOVER       PTSUNNY   61  50  67 NE6       30.22R
HEBER CITY     SUNNY     54  46  76 CALM      30.31R
WEST JORDAN    SUNNY     65  47  52 SE13      30.26R

$$

UTZ012>022-026-027-291600-

SOUTHERN/CENTRAL UTAH

CITY           SKY/WX    TMP DP  RH WIND       PRES   REMARKS
BLANDING       CLOUDY    55  54  96 NW5       30.51R
BRYCE CANYON   CLOUDY    50  47  89 CALM      30.47R
CEDAR CITY     CLOUDY    58  48  69 W7        30.33R
DELTA          SUNNY     61  45  55 S12       30.28R
MILFORD        SUNNY     57  46  66 S10       30.29R
MOAB/CYNLANDS  LGT RAIN  60  57  89 NE5       30.35R FOG
PRICE          CLOUDY    57  50  77 CALM      30.40R
ST GEORGE      PTSUNNY   66  52  59 SW3       30.24S

$$

REGIONAL REPORTS     COLORADO/ARIZONA

CITY           SKY/WX    TMP DP  RH WIND       PRES   REMARKS
CRAIG, CO      CLOUDY    52  40  63 CALM      30.44R
GRAND JUNCTION CLOUDY    59  54  83 NW3       30.38R
RIFLE          MOSUNNY   58  41  53 SE8       30.41S
MONTROSE       CLOUDY    59  43  55 S5        30.43R
CORTEZ         LGT RAIN  58  51  78 NW6       30.44R
PAGE, AZ       PTSUNNY   63  57  81 CALM      30.33R
GRAND CANYON   PTSUNNY   56  51  84 E5        30.41R
KINGMAN        CLOUDY    71  49  45 SE15      30.20R
FLAGSTAFF      LGT RAIN  52  52 100 CALM      30.45R FOG

$$

REGIONAL REPORTS    NEVADA/IDAHO/WYOMING

CITY           SKY/WX    TMP DP  RH WIND       PRES   REMARKS
LAS VEGAS, NV  MOSUNNY   75  52  44 W6        30.14R
ELY            MOSUNNY   54  46  74 SE5       30.33R
ELKO           CLOUDY    65  40  39 SW6       30.21R
POCATELLO, ID  PTSUNNY   54  50  86 CALM      30.20R
EVANSTON, WY   CLOUDY    54  41  61 SW3       30.39R
ROCK SPRINGS   LGT RAIN  58  42  55 S12       30.40R

$$



USA.gov is the U.S. government's official web portal to all federal, state and local government web resources and services.